Year,Month,Day,Hour,Minute,Value (Times are PST for temperature in C)
2018,10,17,00,00,12.10
2018,10,17,00,01,12.10
2018,10,17,00,02,12.00
2018,10,17,00,03,12.00
2018,10,17,00,04,12.00
2018,10,17,00,05,11.90
2018,10,17,00,06,11.90
2018,10,17,00,07,11.90
2018,10,17,00,08,12.00
2018,10,17,00,09,12.00
2018,10,17,00,10,12.10
2018,10,17,00,11,12.10
2018,10,17,00,12,12.20
2018,10,17,00,13,12.30
2018,10,17,00,14,12.30
2018,10,17,00,15,12.40
2018,10,17,00,16,12.60
2018,10,17,00,17,12.70
2018,10,17,00,18,12.80
2018,10,17,00,19,12.80
2018,10,17,00,20,12.90
2018,10,17,00,21,13.00
2018,10,17,00,22,13.00
2018,10,17,00,23,13.00
2018,10,17,00,24,13.00
2018,10,17,00,25,13.00
2018,10,17,00,26,12.90
2018,10,17,00,27,12.80
2018,10,17,00,28,12.70
2018,10,17,00,29,12.60
2018,10,17,00,30,12.40
2018,10,17,00,31,12.30
2018,10,17,00,32,12.30
2018,10,17,00,33,12.20
2018,10,17,00,34,12.20
2018,10,17,00,35,12.10
2018,10,17,00,36,12.10
2018,10,17,00,37,12.20
2018,10,17,00,38,12.20
2018,10,17,00,39,12.20
2018,10,17,00,40,12.20
2018,10,17,00,41,12.20
2018,10,17,00,42,12.20
2018,10,17,00,43,12.20
2018,10,17,00,44,12.20
2018,10,17,00,45,12.20
2018,10,17,00,46,12.30
2018,10,17,00,47,12.30
2018,10,17,00,48,12.30
2018,10,17,00,49,12.30
2018,10,17,00,50,12.30
2018,10,17,00,51,12.40
2018,10,17,00,52,12.40
2018,10,17,00,53,12.40
2018,10,17,00,54,12.40
2018,10,17,00,55,12.40
2018,10,17,00,56,12.40
2018,10,17,00,57,12.40
2018,10,17,00,58,12.40
2018,10,17,00,59,12.50
2018,10,17,01,00,12.40
2018,10,17,01,01,12.50
2018,10,17,01,02,12.50
2018,10,17,01,03,12.50
2018,10,17,01,04,12.50
2018,10,17,01,05,12.50
2018,10,17,01,06,12.50
2018,10,17,01,07,12.60
2018,10,17,01,08,12.50
2018,10,17,01,09,12.50
2018,10,17,01,10,12.50
2018,10,17,01,11,12.50
2018,10,17,01,12,12.50
2018,10,17,01,13,12.50
2018,10,17,01,14,12.50
2018,10,17,01,15,12.40
2018,10,17,01,16,12.40
2018,10,17,01,17,12.40
2018,10,17,01,18,12.40
2018,10,17,01,19,12.40
2018,10,17,01,20,12.40
2018,10,17,01,21,12.40
2018,10,17,01,22,12.40
2018,10,17,01,23,12.30
2018,10,17,01,24,12.20
2018,10,17,01,25,12.10
2018,10,17,01,26,12.00
2018,10,17,01,27,11.90
2018,10,17,01,28,11.80
2018,10,17,01,29,11.70
2018,10,17,01,30,11.70
2018,10,17,01,31,11.60
2018,10,17,01,32,11.60
2018,10,17,01,33,11.60
2018,10,17,01,34,11.50
2018,10,17,01,35,11.50
2018,10,17,01,36,11.50
2018,10,17,01,37,11.60
2018,10,17,01,38,11.60
2018,10,17,01,39,11.70
2018,10,17,01,40,11.70
2018,10,17,01,41,11.80
2018,10,17,01,42,11.80
2018,10,17,01,43,11.90
2018,10,17,01,44,12.00
2018,10,17,01,45,12.00
2018,10,17,01,46,12.10
2018,10,17,01,47,12.10
2018,10,17,01,48,12.10
2018,10,17,01,49,12.20
2018,10,17,01,50,12.10
2018,10,17,01,51,12.10
2018,10,17,01,52,12.00
2018,10,17,01,53,11.90
2018,10,17,01,54,11.80
2018,10,17,01,55,11.70
2018,10,17,01,56,11.60
2018,10,17,01,57,11.50
2018,10,17,01,58,11.40
2018,10,17,01,59,11.30
2018,10,17,02,00,11.30
2018,10,17,02,01,11.30
2018,10,17,02,02,11.30
2018,10,17,02,03,11.40
2018,10,17,02,04,11.40
2018,10,17,02,05,11.40
2018,10,17,02,06,11.50
2018,10,17,02,07,11.50
2018,10,17,02,08,11.60
2018,10,17,02,09,11.60
2018,10,17,02,10,11.60
2018,10,17,02,11,11.70
2018,10,17,02,12,11.70
2018,10,17,02,13,11.80
2018,10,17,02,14,11.80
2018,10,17,02,15,11.90
2018,10,17,02,16,12.00
2018,10,17,02,17,12.10
2018,10,17,02,18,12.10
2018,10,17,02,19,12.20
2018,10,17,02,20,12.20
2018,10,17,02,21,12.30
2018,10,17,02,22,12.30
2018,10,17,02,23,12.30
2018,10,17,02,24,12.30
2018,10,17,02,25,12.20
2018,10,17,02,26,12.10
2018,10,17,02,27,12.00
2018,10,17,02,28,11.90
2018,10,17,02,29,11.70
2018,10,17,02,30,11.60
2018,10,17,02,31,11.40
2018,10,17,02,32,11.20
2018,10,17,02,33,11.10
2018,10,17,02,34,11.00
2018,10,17,02,35,11.00
2018,10,17,02,36,10.90
2018,10,17,02,37,11.00
2018,10,17,02,38,11.10
2018,10,17,02,39,11.20
2018,10,17,02,40,11.30
2018,10,17,02,41,11.40
2018,10,17,02,42,11.50
2018,10,17,02,43,11.60
2018,10,17,02,44,11.70
2018,10,17,02,45,11.70
2018,10,17,02,46,11.70
2018,10,17,02,47,11.70
2018,10,17,02,48,11.60
2018,10,17,02,49,11.50
2018,10,17,02,50,11.40
2018,10,17,02,51,11.20
2018,10,17,02,52,11.00
2018,10,17,02,53,10.80
2018,10,17,02,54,10.70
2018,10,17,02,55,10.50
2018,10,17,02,56,10.30
2018,10,17,02,57,10.20
2018,10,17,02,58,10.10
2018,10,17,02,59,10.00
2018,10,17,03,00,10.00
2018,10,17,03,01,10.00
2018,10,17,03,02,10.00
2018,10,17,03,03,10.00
2018,10,17,03,04,10.00
2018,10,17,03,05,10.00
2018,10,17,03,06,10.00
2018,10,17,03,07,10.00
2018,10,17,03,08,10.00
2018,10,17,03,09,10.00
2018,10,17,03,10,10.10
2018,10,17,03,11,10.10
2018,10,17,03,12,10.10
2018,10,17,03,13,10.20
2018,10,17,03,14,10.20
2018,10,17,03,15,10.30
2018,10,17,03,16,10.40
2018,10,17,03,17,10.60
2018,10,17,03,18,10.70
2018,10,17,03,19,10.80
2018,10,17,03,20,11.00
2018,10,17,03,21,11.10
2018,10,17,03,22,11.20
2018,10,17,03,23,11.40
2018,10,17,03,24,11.50
2018,10,17,03,25,11.60
2018,10,17,03,26,11.60
2018,10,17,03,27,11.70
2018,10,17,03,28,11.80
2018,10,17,03,29,11.80
2018,10,17,03,30,11.90
2018,10,17,03,31,11.90
2018,10,17,03,32,12.00
2018,10,17,03,33,12.10
2018,10,17,03,34,12.10
2018,10,17,03,35,12.20
2018,10,17,03,36,12.20
2018,10,17,03,37,12.30
2018,10,17,03,38,12.30
2018,10,17,03,39,12.30
2018,10,17,03,40,12.30
2018,10,17,03,41,12.40
2018,10,17,03,42,12.40
2018,10,17,03,43,12.40
2018,10,17,03,44,12.40
2018,10,17,03,45,12.40
2018,10,17,03,46,12.50
2018,10,17,03,47,12.50
2018,10,17,03,48,12.60
2018,10,17,03,49,12.60
2018,10,17,03,50,12.60
2018,10,17,03,51,12.60
2018,10,17,03,52,12.60
2018,10,17,03,53,12.50
2018,10,17,03,54,12.50
2018,10,17,03,55,12.50
2018,10,17,03,56,12.40
2018,10,17,03,57,12.40
2018,10,17,03,58,12.30
2018,10,17,03,59,12.30
2018,10,17,04,00,12.30
2018,10,17,04,01,12.20
2018,10,17,04,02,12.20
2018,10,17,04,03,12.10
2018,10,17,05,04,12.30
2018,10,17,05,05,12.30
2018,10,17,05,06,12.30
2018,10,17,05,07,12.30
2018,10,17,05,08,12.30
2018,10,17,05,09,12.30
2018,10,17,05,10,12.30
2018,10,17,05,11,12.30
2018,10,17,05,12,12.40
2018,10,17,05,13,12.40
2018,10,17,05,14,12.40
2018,10,17,05,15,12.40
2018,10,17,05,16,12.40
2018,10,17,05,17,12.40
2018,10,17,05,18,12.40
2018,10,17,05,19,12.30
2018,10,17,05,20,12.30
2018,10,17,05,21,12.30
2018,10,17,05,22,12.30
2018,10,17,05,23,12.30
2018,10,17,05,24,12.30
2018,10,17,05,25,12.30
2018,10,17,05,26,12.30
2018,10,17,05,27,12.30
2018,10,17,05,28,12.30
2018,10,17,05,29,12.30
2018,10,17,05,30,12.30
2018,10,17,05,31,12.30
2018,10,17,05,32,12.30
2018,10,17,05,33,12.30
2018,10,17,05,34,12.30
2018,10,17,05,35,12.30
2018,10,17,05,36,12.30
2018,10,17,05,37,12.30
2018,10,17,05,38,12.30
2018,10,17,05,39,12.20
2018,10,17,05,40,12.20
2018,10,17,05,41,12.20
2018,10,17,05,42,12.20
2018,10,17,05,43,12.20
2018,10,17,05,44,12.20
2018,10,17,05,45,12.20
2018,10,17,05,46,12.20
2018,10,17,05,47,12.10
2018,10,17,05,48,12.00
2018,10,17,05,49,11.80
2018,10,17,05,50,11.70
2018,10,17,05,51,11.60
2018,10,17,05,52,11.50
2018,10,17,05,53,11.40
2018,10,17,05,54,11.30
2018,10,17,05,55,11.30
2018,10,17,05,56,11.30
2018,10,17,05,57,11.30
2018,10,17,05,58,11.20
2018,10,17,05,59,11.30
2018,10,17,06,00,11.30
2018,10,17,06,01,11.30
2018,10,17,06,02,11.30
2018,10,17,06,03,11.30
2018,10,17,06,04,11.30
2018,10,17,06,05,11.30
2018,10,17,06,06,11.30
2018,10,17,06,07,11.30
2018,10,17,06,08,11.40
2018,10,17,06,09,11.40
2018,10,17,06,10,11.40
2018,10,17,06,11,11.40
2018,10,17,06,12,11.50
2018,10,17,06,13,11.50
2018,10,17,06,14,11.60
2018,10,17,06,15,11.60
2018,10,17,06,16,11.70
2018,10,17,06,17,11.70
2018,10,17,06,18,11.70
2018,10,17,06,19,11.80
2018,10,17,06,20,11.80
2018,10,17,06,21,11.80
2018,10,17,06,22,11.90
2018,10,17,06,23,11.90
2018,10,17,06,24,12.00
2018,10,17,06,25,12.00
2018,10,17,06,26,12.10
2018,10,17,06,27,12.10
2018,10,17,06,28,12.10
2018,10,17,06,29,12.10
2018,10,17,06,30,12.20
2018,10,17,06,31,12.20
2018,10,17,06,32,12.20
2018,10,17,06,33,12.20
2018,10,17,06,34,12.30
2018,10,17,06,35,12.30
2018,10,17,06,36,12.30
2018,10,17,06,37,12.30
2018,10,17,06,38,12.30
2018,10,17,06,39,12.20
2018,10,17,06,40,12.20
2018,10,17,06,41,12.20
2018,10,17,06,42,12.20
2018,10,17,06,43,12.10
2018,10,17,06,44,12.10
2018,10,17,06,45,12.10
2018,10,17,06,46,12.10
2018,10,17,06,47,12.00
2018,10,17,06,48,12.00
2018,10,17,06,49,11.90
2018,10,17,06,50,11.90
2018,10,17,06,51,11.90
2018,10,17,06,52,11.80
2018,10,17,06,53,11.80
2018,10,17,06,54,11.80
2018,10,17,06,55,11.80
2018,10,17,06,56,11.80
2018,10,17,06,57,11.70
2018,10,17,06,58,11.70
2018,10,17,06,59,11.70
2018,10,17,07,00,11.70
2018,10,17,07,01,11.70
2018,10,17,07,02,11.70
2018,10,17,07,03,11.70
2018,10,17,07,04,11.70
2018,10,17,07,05,11.70
2018,10,17,07,06,11.70
2018,10,17,07,07,11.70
2018,10,17,07,08,11.80
2018,10,17,07,09,11.80
2018,10,17,07,10,11.80
2018,10,17,07,11,11.80
2018,10,17,07,12,11.80
2018,10,17,07,13,11.80
2018,10,17,07,14,11.80
2018,10,17,07,15,11.80
2018,10,17,07,16,11.80
2018,10,17,07,17,11.80
2018,10,17,07,18,11.80
2018,10,17,07,19,11.80
2018,10,17,07,20,11.80
2018,10,17,07,21,11.80
2018,10,17,07,22,11.80
2018,10,17,07,23,11.80
2018,10,17,07,24,11.80
2018,10,17,07,25,11.80
2018,10,17,07,26,11.80
2018,10,17,07,27,11.80
2018,10,17,07,28,11.80
2018,10,17,07,29,11.80
2018,10,17,07,30,11.80
2018,10,17,07,31,11.80
2018,10,17,07,32,11.90
2018,10,17,07,33,11.90
2018,10,17,07,34,11.90
2018,10,17,07,35,11.80
2018,10,17,07,36,11.80
2018,10,17,07,37,11.80
2018,10,17,07,38,11.80
2018,10,17,07,39,11.80
2018,10,17,07,40,11.80
2018,10,17,07,41,11.80
2018,10,17,07,42,11.80
2018,10,17,07,43,11.90
2018,10,17,07,44,11.90
2018,10,17,07,45,11.90
2018,10,17,07,46,12.00
2018,10,17,07,47,12.00
2018,10,17,07,48,12.10
2018,10,17,07,49,12.10
2018,10,17,07,50,12.10
2018,10,17,07,51,12.10
2018,10,17,07,52,12.20
2018,10,17,07,53,12.20
2018,10,17,07,54,12.20
2018,10,17,07,55,12.20
2018,10,17,07,56,12.20
2018,10,17,07,57,12.20
2018,10,17,07,58,12.20
2018,10,17,07,59,12.20
2018,10,17,08,00,12.20
2018,10,17,08,01,12.20
2018,10,17,08,02,12.20
2018,10,17,08,03,12.20
2018,10,17,08,04,12.20
2018,10,17,08,05,12.20
2018,10,17,08,06,12.20
2018,10,17,08,07,12.20
2018,10,17,08,08,12.20
2018,10,17,08,09,12.20
2018,10,17,08,10,12.20
2018,10,17,08,11,12.20
2018,10,17,08,12,12.20
2018,10,17,08,13,12.20
2018,10,17,08,14,12.20
2018,10,17,08,15,12.20
2018,10,17,08,16,12.20
2018,10,17,08,17,12.20
2018,10,17,08,18,12.20
2018,10,17,08,19,12.20
2018,10,17,08,20,12.20
2018,10,17,08,21,12.20
2018,10,17,08,22,12.20
2018,10,17,08,23,12.20
2018,10,17,08,24,12.20
2018,10,17,08,25,12.20
2018,10,17,08,26,12.20
2018,10,17,08,27,12.20
2018,10,17,08,28,12.20
2018,10,17,08,29,12.20
2018,10,17,08,30,12.20
2018,10,17,08,31,12.30
2018,10,17,08,32,12.30
2018,10,17,08,33,12.30
2018,10,17,08,34,12.30
2018,10,17,08,35,12.30
2018,10,17,08,36,12.30
2018,10,17,08,37,12.30
2018,10,17,08,38,12.30
2018,10,17,08,39,12.30
2018,10,17,08,40,12.30
2018,10,17,08,41,12.30
2018,10,17,08,42,12.30
2018,10,17,08,43,12.30
2018,10,17,08,44,12.30
2018,10,17,08,45,12.30
2018,10,17,08,46,12.30
2018,10,17,08,47,12.30
2018,10,17,08,48,12.20
2018,10,17,08,49,12.20
2018,10,17,08,50,12.20
2018,10,17,08,51,12.30
2018,10,17,08,52,12.30
2018,10,17,08,53,12.30
2018,10,17,08,54,12.40
2018,10,17,08,55,12.50
2018,10,17,08,56,12.50
2018,10,17,08,57,12.60
2018,10,17,08,58,12.70
2018,10,17,08,59,12.80
2018,10,17,09,00,12.80
2018,10,17,09,01,12.90
2018,10,17,09,02,13.00
2018,10,17,09,03,13.00
2018,10,17,09,04,13.10
2018,10,17,09,05,13.10
2018,10,17,09,06,13.20
2018,10,17,09,07,13.20
2018,10,17,09,08,13.30
2018,10,17,09,09,13.30
2018,10,17,09,10,13.40
2018,10,17,09,11,13.40
2018,10,17,09,12,13.50
2018,10,17,09,13,13.60
2018,10,17,09,14,13.70
2018,10,17,09,15,13.70
2018,10,17,09,16,13.80
2018,10,17,09,17,13.80
2018,10,17,09,18,13.90
2018,10,17,09,19,13.90
2018,10,17,09,20,14.00
2018,10,17,09,21,14.00
2018,10,17,09,22,14.00
2018,10,17,09,23,14.10
2018,10,17,09,24,14.10
2018,10,17,09,25,14.10
2018,10,17,09,26,14.10
2018,10,17,09,27,14.10
2018,10,17,09,28,14.10
2018,10,17,09,29,14.10
2018,10,17,09,30,14.10
2018,10,17,09,31,14.10
2018,10,17,09,32,14.10
2018,10,17,09,33,14.10
2018,10,17,09,34,14.10
2018,10,17,09,35,14.10
2018,10,17,09,36,14.10
2018,10,17,09,37,14.10
2018,10,17,09,38,14.10
2018,10,17,09,39,14.10
2018,10,17,09,40,14.10
2018,10,17,09,41,14.10
2018,10,17,09,42,14.10
2018,10,17,09,43,14.10
2018,10,17,09,44,14.10
2018,10,17,09,45,14.20
2018,10,17,09,46,14.20
2018,10,17,09,47,14.20
2018,10,17,09,48,14.30
2018,10,17,09,49,14.30
2018,10,17,09,50,14.30
2018,10,17,09,51,14.30
2018,10,17,09,52,14.30
2018,10,17,09,53,14.30
2018,10,17,09,54,14.30
2018,10,17,09,55,14.30
2018,10,17,09,56,14.30
2018,10,17,09,57,14.30
2018,10,17,09,58,14.30
2018,10,17,09,59,14.30
2018,10,17,10,00,14.30
2018,10,17,10,01,14.30
2018,10,17,10,02,14.30
2018,10,17,10,03,14.40
2018,10,17,10,04,14.40
2018,10,17,10,05,14.40
2018,10,17,10,06,14.40
2018,10,17,10,07,14.40
2018,10,17,10,08,14.40
2018,10,17,10,09,14.40
2018,10,17,10,10,14.40
2018,10,17,10,11,14.40
2018,10,17,10,12,14.40
2018,10,17,10,13,14.40
2018,10,17,10,14,14.30
2018,10,17,10,15,14.30
2018,10,17,10,16,14.40
2018,10,17,10,17,14.40
2018,10,17,10,18,14.40
2018,10,17,10,19,14.40
2018,10,17,10,20,14.50
2018,10,17,10,21,14.50
2018,10,17,10,22,14.60
2018,10,17,10,23,14.60
2018,10,17,10,24,14.70
2018,10,17,10,25,14.70
2018,10,17,10,26,14.70
2018,10,17,10,27,14.70
2018,10,17,10,28,14.70
2018,10,17,10,29,14.80
2018,10,17,10,30,14.80
2018,10,17,10,31,14.70
2018,10,17,10,32,14.70
2018,10,17,10,33,14.70
2018,10,17,10,34,14.70
2018,10,17,10,35,14.80
2018,10,17,10,36,14.80
2018,10,17,10,37,14.80
2018,10,17,10,38,14.80
2018,10,17,10,39,14.80
2018,10,17,10,40,14.80
2018,10,17,10,41,14.80
2018,10,17,10,42,14.90
2018,10,17,10,43,14.90
2018,10,17,10,44,14.90
2018,10,17,10,45,15.00
2018,10,17,10,46,15.00
2018,10,17,10,47,15.00
2018,10,17,10,48,15.10
2018,10,17,10,49,15.10
2018,10,17,10,50,15.10
2018,10,17,10,51,15.10
2018,10,17,10,52,15.20
2018,10,17,10,53,15.20
2018,10,17,10,54,15.20
2018,10,17,10,55,15.20
2018,10,17,10,56,15.20
2018,10,17,10,57,15.20
2018,10,17,10,58,15.20
2018,10,17,10,59,15.20
2018,10,17,11,00,15.20
2018,10,17,11,01,15.20
2018,10,17,11,02,15.30
2018,10,17,11,03,15.30
2018,10,17,11,04,15.30
2018,10,17,11,05,15.40
2018,10,17,11,06,15.40
2018,10,17,11,07,15.40
2018,10,17,11,08,15.40
2018,10,17,11,09,15.50
2018,10,17,11,10,15.50
2018,10,17,11,11,15.60
2018,10,17,11,12,15.60
2018,10,17,11,13,15.70
2018,10,17,11,14,15.70
2018,10,17,11,15,15.70
2018,10,17,11,16,15.70
2018,10,17,11,17,15.70
2018,10,17,11,18,15.60
2018,10,17,11,19,15.60
2018,10,17,11,20,15.60
2018,10,17,11,21,15.60
2018,10,17,11,22,15.60
2018,10,17,11,23,15.70
2018,10,17,11,24,15.70
2018,10,17,11,25,15.70
2018,10,17,11,26,15.70
2018,10,17,11,27,15.70
2018,10,17,11,28,15.70
2018,10,17,11,29,15.70
2018,10,17,11,30,15.80
2018,10,17,11,31,15.80
2018,10,17,11,32,15.90
2018,10,17,11,33,16.00
2018,10,17,11,34,16.00
2018,10,17,11,35,16.10
2018,10,17,11,36,16.10
2018,10,17,11,37,16.10
2018,10,17,11,38,16.10
2018,10,17,11,39,16.10
2018,10,17,11,40,16.20
2018,10,17,11,41,16.30
2018,10,17,11,42,16.30
2018,10,17,11,43,16.30
2018,10,17,11,44,16.30
2018,10,17,11,45,16.30
2018,10,17,11,46,16.40
2018,10,17,11,47,16.40
2018,10,17,11,48,16.50
2018,10,17,11,49,16.50
2018,10,17,11,50,16.50
2018,10,17,11,51,16.50
2018,10,17,11,52,16.50
2018,10,17,11,53,16.40
2018,10,17,11,54,16.40
2018,10,17,11,55,16.40
2018,10,17,11,56,16.40
2018,10,17,11,57,16.40
2018,10,17,11,58,16.40
2018,10,17,11,59,16.30
2018,10,17,12,00,16.40
2018,10,17,12,01,16.40
2018,10,17,12,02,16.40
2018,10,17,12,03,16.40
2018,10,17,12,04,16.50
2018,10,17,12,05,16.50
2018,10,17,12,06,16.60
2018,10,17,12,07,16.60
2018,10,17,12,08,16.60
2018,10,17,12,09,16.70
2018,10,17,12,10,16.70
2018,10,17,12,11,16.70
2018,10,17,12,12,16.80
2018,10,17,12,13,16.80
2018,10,17,12,14,16.80
2018,10,17,12,15,16.90
2018,10,17,12,16,16.90
2018,10,17,12,17,16.80
2018,10,17,12,18,16.80
2018,10,17,12,19,16.80
2018,10,17,12,20,16.80
2018,10,17,12,21,16.80
2018,10,17,12,22,16.90
2018,10,17,12,23,16.90
2018,10,17,12,24,17.00
2018,10,17,12,25,17.00
2018,10,17,12,26,17.00
2018,10,17,12,27,16.90
2018,10,17,12,28,16.90
2018,10,17,12,29,16.80
2018,10,17,12,30,16.80
2018,10,17,12,31,16.80
2018,10,17,12,32,16.80
2018,10,17,12,33,16.80
2018,10,17,12,34,16.80
2018,10,17,12,35,16.80
2018,10,17,12,36,16.80
2018,10,17,12,37,16.80
2018,10,17,12,38,16.80
2018,10,17,12,39,16.70
2018,10,17,12,40,16.70
2018,10,17,12,41,16.70
2018,10,17,12,42,16.60
2018,10,17,12,43,16.50
2018,10,17,12,44,16.50
2018,10,17,12,45,16.40
2018,10,17,12,46,16.40
2018,10,17,12,47,16.40
2018,10,17,12,48,16.40
2018,10,17,12,49,16.40
2018,10,17,12,50,16.40
2018,10,17,12,51,16.50
2018,10,17,12,52,16.50
2018,10,17,12,53,16.60
2018,10,17,12,54,16.70
2018,10,17,12,55,16.70
2018,10,17,12,56,16.80
2018,10,17,12,57,16.80
2018,10,17,12,58,16.90
2018,10,17,12,59,16.90
2018,10,17,13,00,16.90
2018,10,17,13,01,17.00
2018,10,17,13,02,17.00
2018,10,17,13,03,17.10
2018,10,17,13,04,17.10
2018,10,17,13,05,17.10
2018,10,17,13,06,17.10
2018,10,17,13,07,17.10
2018,10,17,13,08,17.20
2018,10,17,13,09,17.20
2018,10,17,13,10,17.20
2018,10,17,13,11,17.30
2018,10,17,13,12,17.30
2018,10,17,13,13,17.40
2018,10,17,13,14,17.40
2018,10,17,13,15,17.40
2018,10,17,13,16,17.40
2018,10,17,13,17,17.40
2018,10,17,13,18,17.50
2018,10,17,13,19,17.50
2018,10,17,13,20,17.60
2018,10,17,13,21,17.60
2018,10,17,13,22,17.70
2018,10,17,13,23,17.70
2018,10,17,13,24,17.80
2018,10,17,13,25,17.80
2018,10,17,13,26,17.90
2018,10,17,13,27,17.90
2018,10,17,13,28,18.00
2018,10,17,13,29,18.10
2018,10,17,13,30,18.20
2018,10,17,13,31,18.20
2018,10,17,13,32,18.20
2018,10,17,13,33,18.20
2018,10,17,13,34,18.20
2018,10,17,13,35,18.20
2018,10,17,13,36,18.20
2018,10,17,13,37,18.20
2018,10,17,13,38,18.20
2018,10,17,13,39,18.20
2018,10,17,13,40,18.20
2018,10,17,13,41,18.20
2018,10,17,13,42,18.20
2018,10,17,13,43,18.10
2018,10,17,13,44,18.00
2018,10,17,13,45,18.00
2018,10,17,13,46,18.00
2018,10,17,13,47,18.10
2018,10,17,13,48,18.20
2018,10,17,13,49,18.20
2018,10,17,13,50,18.30
2018,10,17,13,51,18.30
2018,10,17,13,52,18.40
2018,10,17,13,53,18.40
2018,10,17,13,54,18.40
2018,10,17,13,55,18.50
2018,10,17,13,56,18.50
2018,10,17,13,57,18.50
2018,10,17,13,58,18.60
2018,10,17,13,59,18.60
2018,10,17,14,00,18.60
2018,10,17,14,01,18.70
2018,10,17,14,02,18.70
2018,10,17,14,03,18.70
2018,10,17,14,04,18.70
2018,10,17,14,05,18.80
2018,10,17,14,06,18.80
2018,10,17,14,07,18.90
2018,10,17,14,08,18.90
2018,10,17,14,09,18.90
2018,10,17,14,10,18.90
2018,10,17,14,11,18.90
2018,10,17,14,12,18.90
2018,10,17,14,13,19.00
2018,10,17,14,14,18.90
2018,10,17,14,15,18.90
2018,10,17,14,16,18.90
2018,10,17,14,17,18.90
2018,10,17,14,18,18.90
2018,10,17,14,19,18.90
2018,10,17,14,20,18.90
2018,10,17,14,21,18.80
2018,10,17,14,22,18.80
2018,10,17,14,23,18.70
2018,10,17,14,24,18.70
2018,10,17,14,25,18.70
2018,10,17,14,26,18.70
2018,10,17,14,27,18.70
2018,10,17,14,28,18.80
2018,10,17,14,29,18.80
2018,10,17,14,30,18.80
2018,10,17,14,31,18.90
2018,10,17,14,32,19.00
2018,10,17,14,33,19.10
2018,10,17,14,34,19.10
2018,10,17,14,35,19.20
2018,10,17,14,36,19.20
2018,10,17,14,37,19.20
2018,10,17,14,38,19.10
2018,10,17,14,39,19.10
2018,10,17,14,40,19.10
2018,10,17,14,41,19.10
2018,10,17,14,42,19.10
2018,10,17,14,43,19.20
2018,10,17,14,44,19.20
2018,10,17,14,45,19.20
2018,10,17,14,46,19.30
2018,10,17,14,47,19.30
2018,10,17,14,48,19.20
2018,10,17,14,49,19.20
2018,10,17,14,50,19.30
2018,10,17,14,51,19.30
2018,10,17,14,52,19.30
2018,10,17,14,53,19.30
2018,10,17,14,54,19.30
2018,10,17,14,55,19.30
2018,10,17,14,56,19.30
2018,10,17,14,57,19.40
2018,10,17,14,58,19.40
2018,10,17,14,59,19.40
2018,10,17,15,00,19.50
2018,10,17,15,01,19.50
2018,10,17,15,02,19.50
2018,10,17,15,03,19.40
2018,10,17,15,04,19.40
2018,10,17,15,05,19.40
2018,10,17,15,06,19.30
2018,10,17,15,07,19.30
2018,10,17,15,08,19.30
2018,10,17,15,09,19.30
2018,10,17,15,10,19.30
2018,10,17,15,11,19.30
2018,10,17,15,12,19.30
2018,10,17,15,13,19.20
2018,10,17,15,14,19.20
2018,10,17,15,15,19.20
2018,10,17,15,16,19.20
2018,10,17,15,17,19.20
2018,10,17,15,18,19.20
2018,10,17,15,19,19.20
2018,10,17,15,20,19.20
2018,10,17,15,21,19.10
2018,10,17,15,22,19.10
2018,10,17,15,23,19.10
2018,10,17,15,24,19.00
2018,10,17,15,25,19.00
2018,10,17,15,26,19.00
2018,10,17,15,27,18.90
2018,10,17,15,28,18.90
2018,10,17,15,29,18.90
2018,10,17,15,30,18.90
2018,10,17,15,31,18.90
2018,10,17,15,32,18.90
2018,10,17,15,33,18.90
2018,10,17,15,34,18.90
2018,10,17,15,35,18.90
2018,10,17,15,36,18.90
2018,10,17,15,37,19.00
2018,10,17,15,38,19.00
2018,10,17,15,39,19.00
2018,10,17,15,40,19.00
2018,10,17,15,41,19.00
2018,10,17,15,42,19.10
2018,10,17,15,43,19.10
2018,10,17,15,44,19.10
2018,10,17,15,45,19.10
2018,10,17,15,46,19.10
2018,10,17,15,47,19.10
2018,10,17,15,48,19.10
2018,10,17,15,49,19.10
2018,10,17,15,50,19.20
2018,10,17,15,51,19.20
2018,10,17,15,52,19.20
2018,10,17,15,53,19.30
2018,10,17,15,54,19.30
2018,10,17,15,55,19.40
2018,10,17,15,56,19.40
2018,10,17,15,57,19.50
2018,10,17,15,58,19.50
2018,10,17,15,59,19.50
2018,10,17,16,00,19.50
2018,10,17,16,01,19.50
2018,10,17,16,02,19.50
2018,10,17,16,03,19.60
2018,10,17,16,04,19.60
2018,10,17,16,05,19.70
2018,10,17,16,06,19.80
2018,10,17,16,07,19.80
2018,10,17,16,08,19.80
2018,10,17,16,09,19.90
2018,10,17,17,04,19.70
2018,10,17,17,05,19.70
2018,10,17,17,06,19.70
2018,10,17,17,07,19.70
2018,10,17,17,08,19.70
2018,10,17,17,09,19.70
2018,10,17,17,10,19.70
2018,10,17,17,11,19.60
2018,10,17,17,12,19.50
2018,10,17,17,13,19.40
2018,10,17,17,14,19.30
2018,10,17,17,15,19.20
2018,10,17,17,16,19.10
2018,10,17,17,17,19.10
2018,10,17,17,18,19.00
2018,10,17,17,19,19.00
2018,10,17,17,20,18.90
2018,10,17,17,21,18.90
2018,10,17,17,22,18.80
2018,10,17,17,23,18.80
2018,10,17,17,24,18.80
2018,10,17,17,25,18.80
2018,10,17,17,26,18.80
2018,10,17,17,27,18.80
2018,10,17,17,28,18.80
2018,10,17,17,29,18.80
2018,10,17,17,30,18.80
2018,10,17,17,31,18.70
2018,10,17,17,32,18.70
2018,10,17,17,33,18.60
2018,10,17,17,34,18.60
2018,10,17,17,35,18.50
2018,10,17,17,36,18.50
2018,10,17,17,37,18.50
2018,10,17,17,38,18.50
2018,10,17,17,39,18.60
2018,10,17,17,40,18.60
2018,10,17,17,41,18.70
2018,10,17,17,42,18.70
2018,10,17,17,43,18.70
2018,10,17,17,44,18.70
2018,10,17,17,45,18.70
2018,10,17,17,46,18.70
2018,10,17,17,47,18.70
2018,10,17,17,48,18.60
2018,10,17,17,49,18.60
2018,10,17,17,50,18.50
2018,10,17,17,51,18.50
2018,10,17,17,52,18.40
2018,10,17,17,53,18.30
2018,10,17,17,54,18.30
2018,10,17,17,55,18.20
2018,10,17,17,56,18.20
2018,10,17,17,57,18.20
2018,10,17,17,58,18.10
2018,10,17,17,59,18.10
2018,10,17,18,00,18.10
2018,10,17,18,01,18.00
2018,10,17,18,02,17.90
2018,10,17,18,03,17.80
2018,10,17,18,04,17.80
2018,10,17,18,05,17.70
2018,10,17,18,06,17.60
2018,10,17,18,07,17.50
2018,10,17,18,08,17.40
2018,10,17,18,09,17.30
2018,10,17,18,10,17.20
2018,10,17,18,11,17.10
2018,10,17,18,12,17.00
2018,10,17,18,13,16.90
2018,10,17,18,14,16.90
2018,10,17,18,15,16.80
2018,10,17,18,16,16.70
2018,10,17,18,17,16.60
2018,10,17,18,18,16.50
2018,10,17,18,19,16.40
2018,10,17,18,20,16.30
2018,10,17,18,21,16.20
2018,10,17,18,22,16.10
2018,10,17,18,23,16.00
2018,10,17,18,24,15.90
2018,10,17,18,25,15.80
2018,10,17,18,26,15.70
2018,10,17,18,27,15.60
2018,10,17,18,28,15.50
2018,10,17,18,29,15.40
2018,10,17,18,30,15.30
2018,10,17,18,31,15.20
2018,10,17,18,32,15.10
2018,10,17,18,33,15.10
2018,10,17,18,34,15.00
2018,10,17,18,35,14.90
2018,10,17,18,36,14.80
2018,10,17,18,37,14.70
2018,10,17,18,38,14.60
2018,10,17,18,39,14.60
2018,10,17,18,40,14.50
2018,10,17,18,41,14.40
2018,10,17,18,42,14.40
2018,10,17,18,43,14.30
2018,10,17,18,44,14.20
2018,10,17,18,45,14.20
2018,10,17,18,46,14.10
2018,10,17,18,47,14.10
2018,10,17,18,48,14.00
2018,10,17,18,49,14.00
2018,10,17,18,50,13.90
2018,10,17,18,51,13.90
2018,10,17,18,52,13.80
2018,10,17,18,53,13.80
2018,10,17,18,54,13.80
2018,10,17,18,55,13.70
2018,10,17,18,56,13.70
2018,10,17,18,57,13.60
2018,10,17,18,58,13.60
2018,10,17,18,59,13.60
2018,10,17,19,00,13.50
2018,10,17,19,01,13.50
2018,10,17,19,02,13.40
2018,10,17,19,03,13.40
2018,10,17,19,04,13.40
2018,10,17,19,05,13.40
2018,10,17,19,06,13.30
2018,10,17,19,07,13.30
2018,10,17,19,08,13.30
2018,10,17,19,09,13.30
2018,10,17,19,10,13.30
2018,10,17,19,11,13.30
2018,10,17,19,12,13.20
2018,10,17,19,13,13.20